Tillbaka till svenska Fidonet
English   Information   Debug  
FILM   0/18
FNEWS_PUBLISH   4997
FN_SYSOP   42233
FN_SYSOP_OLD1   71952
FTP_FIDO   0/2
FTSC_PUBLIC   0/13977
FUNNY   0/4886
GENEALOGY.EUR   0/71
GET_INFO   105
GOLDED   0/408
HAM   1405/16740
HOLYSMOKE   0/6791
HOT_SITES   0/1
HTMLEDIT   0/71
HUB203   466
HUB_100   264
HUB_400   39
HUMOR   0/29
IC   0/2851
INTERNET   0/424
INTERUSER   0/3
IP_CONNECT   719
JAMNNTPD   0/233
JAMTLAND   0/47
KATTY_KORNER   0/41
LAN   0/16
LINUX-USER   0/19
LINUXHELP   0/1155
LINUX   0/22398
LINUX_BBS   0/957
mail   18.68
mail_fore_ok   249
MENSA   0/341
MODERATOR   0/102
MONTE   0/992
MOSCOW_OKLAHOMA   0/1245
MUFFIN   0/783
MUSIC   0/321
N203_STAT   938
N203_SYSCHAT   313
NET203   321
NET204   69
NET_DEV   0/10
NORD.ADMIN   0/101
NORD.CHAT   0/2572
NORD.FIDONET   189
NORD.HARDWARE   0/28
NORD.KULTUR   0/114
NORD.PROG   0/32
NORD.SOFTWARE   0/88
NORD.TEKNIK   0/58
NORD   0/453
OCCULT_CHAT   0/93
OS2BBS   0/787
OS2DOSBBS   0/580
OS2HW   0/42
OS2INET   0/37
OS2LAN   0/134
OS2PROG   0/36
OS2REXX   0/113
OS2USER-L   207
OS2   0/4831
OSDEBATE   0/18996
PASCAL   0/490
PERL   0/457
PHP   0/45
POINTS   0/405
POLITICS   0/29554
POL_INC   0/14731
PSION   103
R20_ADMIN   1133
R20_AMATORRADIO   0/2
R20_BEST_OF_FIDONET   16
R20_CHAT   0/897
R20_DEPP   0/3
R20_DEV   400
R20_ECHO2   1899
R20_ECHOPRES   0/35
R20_ESTAT   0/719
R20_FIDONETPROG...
...RAM.MYPOINT
  0/2
R20_FIDONETPROGRAM   0/22
R20_FIDONET   0/248
R20_FILEFIND   0/24
R20_FILEFOUND   0/22
R20_HIFI   0/3
R20_INFO2   3792
R20_INTERNET   0/12940
R20_INTRESSE   0/60
R20_INTR_KOM   0/99
R20_KANDIDAT.CHAT   42
R20_KANDIDAT   28
R20_KOM_DEV   112
R20_KONTROLL   0/13360
R20_KORSET   0/18
R20_LOKALTRAFIK   0/24
R20_MODERATOR   0/1852
R20_NC   76
R20_NET200   245
R20_NETWORK.OTH...
...ERNETS
  0/13
R20_OPERATIVSYS...
...TEM.LINUX
  0/44
R20_PROGRAMVAROR   0/1
R20_REC2NEC   534
R20_SFOSM   0/341
R20_SF   0/108
R20_SPRAK.ENGLISH   0/1
R20_SQUISH   107
R20_TEST   2
R20_WORST_OF_FIDONET   20
RAR   0/9
RA_MULTI   106
RA_UTIL   0/162
REGCON.EUR   0/2072
REGCON   0/13
SCIENCE   0/1206
SF   0/239
SHAREWARE_SUPPORT   0/5146
SHAREWRE   0/14
SIMPSONS   0/169
STATS_OLD1   0/2539.065
STATS_OLD2   0/2530
STATS_OLD3   0/2395.095
STATS_OLD4   0/1692.25
SURVIVOR   0/495
SYSOPS_CORNER   0/3
SYSOP   0/84
TAGLINES   0/112
TEAMOS2   0/4530
TECH   0/2617
TEST.444   0/105
TRAPDOOR   0/19
TREK   0/755
TUB   0/290
UFO   0/40
UNIX   0/1316
USA_EURLINK   0/102
USR_MODEMS   0/1
VATICAN   0/2740
VIETNAM_VETS   0/14
VIRUS   0/378
VIRUS_INFO   0/201
VISUAL_BASIC   0/473
WHITEHOUSE   0/5187
WIN2000   0/101
WIN32   0/30
WIN95   0/4291
WIN95_OLD1   0/70272
WINDOWS   0/1517
WWB_SYSOP   0/419
WWB_TECH   0/810
ZCC-PUBLIC   0/1
ZEC   4

 
4DOS   0/134
ABORTION   0/7
ALASKA_CHAT   0/506
ALLFIX_FILE   0/1313
ALLFIX_FILE_OLD1   0/7997
ALT_DOS   0/152
AMATEUR_RADIO   0/1039
AMIGASALE   0/14
AMIGA   0/331
AMIGA_INT   0/1
AMIGA_PROG   0/20
AMIGA_SYSOP   0/26
ANIME   0/15
ARGUS   0/924
ASCII_ART   0/340
ASIAN_LINK   0/651
ASTRONOMY   0/417
AUDIO   0/92
AUTOMOBILE_RACING   0/105
BABYLON5   0/17862
BAG   135
BATPOWER   0/361
BBBS.ENGLISH   0/382
BBSLAW   0/109
BBS_ADS   0/5290
BBS_INTERNET   0/507
BIBLE   1175/3563
BINKD   0/1119
BINKLEY   0/215
BLUEWAVE   0/2173
CABLE_MODEMS   0/25
CBM   0/46
CDRECORD   0/66
CDROM   0/20
CLASSIC_COMPUTER   0/378
COMICS   0/15
CONSPRCY   0/899
COOKING   42090
COOKING_OLD1   0/24719
COOKING_OLD2   0/40862
COOKING_OLD3   0/37489
COOKING_OLD4   0/35496
COOKING_OLD5   9370
C_ECHO   0/189
C_PLUSPLUS   0/31
DIRTY_DOZEN   0/201
DOORGAMES   0/2364
DOS_INTERNET   0/196
duplikat   6102
ECHOLIST   0/18295
EC_SUPPORT   0/318
ELECTRONICS   0/359
ELEKTRONIK.GER   1534
ENET.LINGUISTIC   0/13
ENET.POLITICS   0/4
ENET.SOFT   0/11701
ENET.SYSOP   34340
ENET.TALKS   0/32
ENGLISH_TUTOR   0/2000
EVOLUTION   0/1335
FDECHO   0/217
FDN_ANNOUNCE   0/7068
FIDONEWS   25138
FIDONEWS_OLD1   0/49742
FIDONEWS_OLD2   0/35949
FIDONEWS_OLD3   0/30874
FIDONEWS_OLD4   0/37224
FIDO_SYSOP   12975
FIDO_UTIL   0/180
FILEFIND   0/209
FILEGATE   0/212
Möte HAM, 16740 texter
 lista första sista föregående nästa
Text 2604, 745 rader
Skriven 2008-11-06 22:00:25 av Amsat List (1:323/120.0)
Ärende: [keps]  orb08311.amsa
=============================
[keps]  orb08311.amsa

Return-Path: <keps-bounces@amsat.org>
X-Rcpt: craig.healy@chowda.com
X-UIDL: 1226024228.1690

SB KEPS @ AMSAT  $ORB08311.O
Orbital Elements  08311.OSCAR

HR AMSAT ORBITAL ELEMENTS FOR OSCAR SATELLITES
FROM WA5QGD FORT WORTH,TX November 6, 2008
Send Subscribe/unsubscribe to KEPS at 
http://www.amsat.org/mailman/listinfo/keps
BID: ORB08311.O
TO ALL RADIO AMATEURS BT

Satellite: AO-07
Catalog number: 07530
Epoch time:      08311.66830552
Element set:     320
Inclination:      101.4516 deg
RA of node:       338.3267 deg
Eccentricity:    0.0012092
Arg of perigee:   344.4776 deg
Mean anomaly:     015.5919 deg
Mean motion:   12.53574597 rev/day
Decay rate:       -2.7e-07 rev/day^2
Epoch rev:           55483
Checksum:              298

Satellite: AO-10
Catalog number: 14129
Epoch time:      08310.95014570
Element set:     585
Inclination:      026.0336 deg
RA of node:       187.3013 deg
Eccentricity:    0.5959059
Arg of perigee:   171.0813 deg
Mean anomaly:     207.7259 deg
Mean motion:   02.05868585 rev/day
Decay rate:       -1.3e-07 rev/day^2
Epoch rev:           19102
Checksum:              293

Satellite: UO-11
Catalog number: 14781
Epoch time:      08311.66931379
Element set:     806
Inclination:      098.1386 deg
RA of node:       347.7183 deg
Eccentricity:    0.0008916
Arg of perigee:   341.5270 deg
Mean anomaly:     018.5655 deg
Mean motion:   14.79674301 rev/day
Decay rate:        9.2e-07 rev/day^2
Epoch rev:           32492
Checksum:              322

Satellite: RS-15
Catalog number: 23439
Epoch time:      08310.92047432
Element set:    0208
Inclination:      064.8155 deg
RA of node:       265.8549 deg
Eccentricity:    0.0145678
Arg of perigee:   095.3237 deg
Mean anomaly:     266.4326 deg
Mean motion:   11.27552554 rev/day
Decay rate:       -3.9e-07 rev/day^2
Epoch rev:           57094
Checksum:              323

Satellite: FO-29
Catalog number: 24278
Epoch time:      08310.74043917
Element set:    0910
Inclination:      098.5773 deg
RA of node:       208.4374 deg
Eccentricity:    0.0350327
Arg of perigee:   208.9759 deg
Mean anomaly:     149.1522 deg
Mean motion:   13.52940148 rev/day
Decay rate:        2.0e-07 rev/day^2
Epoch rev:           60353
Checksum:              309

Satellite: SO-33
Catalog number: 25509
Epoch time:      08310.94366043
Element set:    0319
Inclination:      031.4325 deg
RA of node:       234.8252 deg
Eccentricity:    0.0354826
Arg of perigee:   186.6973 deg
Mean anomaly:     172.8834 deg
Mean motion:   14.28233207 rev/day
Decay rate:       2.76e-06 rev/day^2
Epoch rev:           52389
Checksum:              316

Satellite: AO-40
Catalog number: 26609
Epoch time:      08310.48045755
Element set:    0149
Inclination:      008.0401 deg
RA of node:       050.8635 deg
Eccentricity:    0.7937936
Arg of perigee:   141.4229 deg
Mean anomaly:     317.4964 deg
Mean motion:   01.25587597 rev/day
Decay rate:      -2.72e-06 rev/day^2
Epoch rev:           03681
Checksum:              321

Satellite: VO-52
Catalog number: 28650
Epoch time:      08311.71464575
Element set:      75
Inclination:      097.7724 deg
RA of node:       014.2874 deg
Eccentricity:    0.0027862
Arg of perigee:   037.8722 deg
Mean anomaly:     322.4419 deg
Mean motion:   14.81516964 rev/day
Decay rate:       -6.2e-07 rev/day^2
Epoch rev:           18970
Checksum:              323

Satellite: PO-63
Catalog number: 29712
Epoch time:      08311.71928964
Element set:     946
Inclination:      097.8585 deg
RA of node:       007.1153 deg
Eccentricity:    0.0013224
Arg of perigee:   280.5083 deg
Mean anomaly:     079.4637 deg
Mean motion:   14.80325379 rev/day
Decay rate:       5.44e-06 rev/day^2
Epoch rev:            9855
Checksum:              333

/EX
SB KEPS @ AMSAT  $ORB08311.D
Orbital Elements  08311.MICROS

HR AMSAT ORBITAL ELEMENTS FOR THE MICROSATS
FROM WA5QGD FORT WORTH,TX November 6, 2008
Send Subscribe/unsubscribe to KEPS at 
http://www.amsat.org/mailman/listinfo/keps
BID: ORB08311.D
TO ALL RADIO AMATEURS BT

Satellite: AO-16
Catalog number: 20439
Epoch time:      08311.49125800
Element set:     457
Inclination:      098.2497 deg
RA of node:       284.4124 deg
Eccentricity:    0.0011742
Arg of perigee:   110.8067 deg
Mean anomaly:     249.4366 deg
Mean motion:   14.31807069 rev/day
Decay rate:       -7.0e-08 rev/day^2
Epoch rev:           98128
Checksum:              306

Satellite: LO-19
Catalog number: 20442
Epoch time:      08311.51500821
Element set:     381
Inclination:      098.2165 deg
RA of node:       292.5188 deg
Eccentricity:    0.0012751
Arg of perigee:   108.5688 deg
Mean anomaly:     251.6871 deg
Mean motion:   14.32044532 rev/day
Decay rate:       -5.8e-07 rev/day^2
Epoch rev:           98144
Checksum:              296

Satellite: AO-27
Catalog number: 22825
Epoch time:      08310.89514429
Element set:    0102
Inclination:      098.4061 deg
RA of node:       265.7377 deg
Eccentricity:    0.0007823
Arg of perigee:   198.0449 deg
Mean anomaly:     162.0458 deg
Mean motion:   14.29250935 rev/day
Decay rate:        5.9e-07 rev/day^2
Epoch rev:           78801
Checksum:              320

Satellite: IO-26
Catalog number: 22826
Epoch time:      08311.83442930
Element set:     814
Inclination:      098.3995 deg
RA of node:       267.4908 deg
Eccentricity:    0.0008524
Arg of perigee:   191.4855 deg
Mean anomaly:     168.6148 deg
Mean motion:   14.29500697 rev/day
Decay rate:       -1.0e-08 rev/day^2
Epoch rev:           78824
Checksum:              338

